Snowfall_Accumulation
0.0 0.0 0.0 0.0 0.0 0.0 0.0 0.0 0.0 0.0 0.0 0.0 0.0 0.0 0.0 0.0 0.0 0.0 0.0 0.0 0.0 0.0 0.0 0.0 0.0 0.0 0.0 0.0 0.0 0.0 0.0 0.0
0.0 0.0 0.0 0.0 0.0 0.0 0.0 0.0 0.0 0.0 0.0 0.0 0.0 0.0 0.0 0.0 0.0 0.0 0.0 0.0 0.0 0.0 0.0 0.0 0.0 0.0 0.0 0.0 0.0 0.0 0.0 0.0
0.0 0.0 0.0 0.0 0.0 0.0 0.0 0.0 0.0 0.0 0.0 0.0 0.0 0.0 0.0 0.0 0.0 0.0 0.0 0.0 0.0 0.0 0.0 0.0 0.0 0.0 0.0 0.0 0.0 0.0 0.0 0.0
0.0 0.0 0.0 0.0 0.0 0.0 0.0 0.0 0.0 0.0 0.0 0.0 0.0 0.0 0.0 0.0 0.0 0.0 0.0 0.0 0.0 0.0 0.0 0.0 0.0 0.0 0.0 0.0 0.0 0.0 0.0 0.0
0.0 0.0 0.0 0.0 0.0 0.0 0.0 0.0 0.0 0.0 0.0 0.0 0.0 0.0 0.0 0.0 0.0 0.0 0.0 0.0 0.0 0.0 0.0 0.0 0.0 0.0 0.0 0.0 0.0 0.0 0.0 0.0
0.0 0.0 0.0 0.0 0.0 0.0 0.0 0.0 0.0 0.0 0.0 0.0 0.0 0.0 0.0 0.0 0.0 0.0 0.0 0.0 0.0 0.0 0.0 0.0 0.0 0.0 0.0 0.0 0.0 0.1 0.0 0.4
0.0 0.0 0.0 0.0 0.0 0.0 0.0 0.0 0.0 0.0 0.0 0.0 0.0 0.0 0.0 0.0 0.0 0.0 0.0 0.0 0.0 0.0 0.0 0.0 0.0 0.0 0.2 0.0 0.0 0.0 0.4 0.5
0.0 0.0 0.0 0.0 0.0 0.0 0.0 0.0 0.0 0.0 0.0 0.0 0.0 0.0 0.0 0.0 0.0 0.0 0.0 0.1 0.2 0.2 0.0 0.2 0.1 0.1 0.6 0.8 0.8 0.8 0.9 1.0
0.0 0.0 0.0 0.0 0.0 0.0 0.0 0.0 0.0 0.0 0.0 0.0 0.0 0.0 0.0 0.0 0.0 0.0 0.0 0.1 0.3 0.2 0.4 0.3 0.5 0.6 1.0 1.5 1.8 1.9 1.8 1.6
0.0 0.0 0.0 0.0 0.0 0.0 0.0 0.0 0.0 0.0 0.0 0.0 0.0 0.0 0.0 0.0 0.0 0.0 0.0 0.2 0.3 0.4 0.5 0.9 0.5 0.8 1.2 2.4 3.1 3.3 3.1 2.8
0.0 0.0 0.0 0.0 0.0 0.0 0.0 0.0 0.0 0.0 0.0 0.0 0.0 0.0 0.0 0.0 0.0 0.0 0.1 0.4 1.0 1.4 1.6 1.6 2.0 1.6 1.7 2.0 2.5 3.0 3.6 3.3
0.0 0.0 0.0 0.0 0.0 0.0 0.0 0.0 0.0 0.0 0.0 0.0 0.0 0.0 0.0 0.0 0.0 0.5 1.6 2.1 2.9 2.7 2.8 3.6 3.5 2.8 2.3 1.6 1.8 1.9 2.3 3.1
0.0 0.0 0.0 0.0 0.0 0.0 0.0 0.0 0.0 0.0 0.0 0.0 0.0 0.0 0.0 0.0 0.0 0.8 1.6 2.2 2.7 3.5 3.6 3.1 3.1 3.0 3.1 1.8 1.1 0.8 1.0 1.4
0.0 0.0 0.0 0.0 0.0 0.0 0.0 0.0 0.0 0.0 0.0 0.0 0.0 0.0 0.0 0.0 1.1 1.3 1.5 1.6 2.1 2.1 2.1 2.2 2.8 2.7 2.4 1.5 1.0 1.6 2.1 2.5
0.0 0.0 0.0 0.0 0.0 0.0 0.0 0.0 0.0 0.0 0.0 0.0 0.1 0.1 0.0 0.8 1.4 1.6 1.8 1.7 1.2 0.8 0.6 1.2 1.6 2.1 2.6 1.0 0.6 1.0 0.9 2.8
0.0 0.0 0.0 0.0 0.0 0.1 0.3 0.4 0.0 0.0 0.0 0.0 0.2 0.5 0.6 0.6 0.4 1.0 0.9 0.6 0.7 1.3 1.2 1.6 2.0 2.8 3.7 3.8 2.5 1.7 0.9 0.6
0.0 0.0 0.0 0.1 0.1 0.1 0.9 0.0 0.0 0.0 0.0 0.1 0.3 0.5 0.6 1.1 1.3 1.2 0.9 0.0 0.1 0.3 2.3 2.8 2.9 3.1 2.7 2.8 0.0 1.0 1.0 0.9
0.0 0.1 0.1 0.3 0.7 0.9 0.1 0.0 0.0 0.0 0.0 0.0 0.3 0.9 1.0 1.3 1.4 0.8 0.5 1.0 0.0 1.1 1.3 1.4 1.4 1.6 1.1 0.7 0.0 0.3 0.2 0.0
0.1 0.1 0.2 0.4 0.5 0.5 0.0 0.0 0.0 0.0 0.3 0.6 0.7 0.9 0.9 0.9 0.6 0.6 0.7 0.9 1.2 1.5 0.0 1.6 1.7 1.4 0.8 0.4 0.0 0.0 0.0 0.0